This is the latest recevied weather packets stored in our database for station/object YO4ISC-13. If no packets are shown the sender has not sent any weather packets the latest 10 day(s).
| Time | Temp. | Humidity | Pressure | Rain* | Wind** | Luminosity | Snow |
|---|---|---|---|---|---|---|---|
| 1777907402 | 15° C | 48% | 1017 hPa | - | - | - | - |
| 1777906801 | 15° C | 45% | 1017 hPa | - | - | - | - |
| 1777906202 | 15.56° C | 46% | 1016 hPa | - | - | - | - |
| 1777905602 | 15.56° C | 45% | 1017 hPa | - | - | - | - |
| 1777905002 | 15.56° C | 44% | 1017 hPa | - | - | - | - |
| 1777904402 | 15° C | 45% | 1016 hPa | - | - | - | - |
| 1777903801 | 15.56° C | 43% | 1016 hPa | - | - | - | - |
| 1777903202 | 16.11° C | 40% | 1016 hPa | - | - | - | - |
| 1777902601 | 16.67° C | 39% | 1016 hPa | - | - | - | - |
| 1777901402 | 16.67° C | 36% | 1016 hPa | - | - | - | - |
| 1777900801 | 16.11° C | 37% | 1016 hPa | - | - | - | - |
| 1777900202 | 16.67° C | 40% | 1016 hPa | - | - | - | - |
| 1777899601 | 16.11° C | 37% | 1016 hPa | - | - | - | - |
| 1777899002 | 16.11° C | 37% | 1016 hPa | - | - | - | - |
| 1777898401 | 16.67° C | 37% | 1016 hPa | - | - | - | - |
| 1777897802 | 16.11° C | 38% | 1016 hPa | - | - | - | - |
| 1777897202 | 16.11° C | 38% | 1016 hPa | - | - | - | - |
| 1777896602 | 16.67° C | 38% | 1016 hPa | - | - | - | - |
| 1777896002 | 16.67° C | 38% | 1017 hPa | - | - | - | - |
| 1777895401 | 16.67° C | 38% | 1016 hPa | - | - | - | - |
| 1777894802 | 16.67° C | 34% | 1016 hPa | - | - | - | - |
| 1777894201 | 16.67° C | 34% | 1016 hPa | - | - | - | - |
| 1777893602 | 16.67° C | 33% | 1017 hPa | - | - | - | - |
| 1777893002 | 16.67° C | 33% | 1017 hPa | - | - | - | - |
| 1777892402 | 16.11° C | 33% | 1017 hPa | - | - | - | - |
* Rain since midnight (hover to see other rain measurements)
** Current wind speed in m/s (hover to see current wind gust speed)